Location: *
(51.0333°S, 178.4667°E)
Time: 13:21:02
(UTC+00:00)

STARLINK-33 - Pass Details

Date: 15 November 2019
Orbit: 529 x 530 km, 53.0° (Epoch: 08 December)

Event Time Altitude Azimuth Distance (km) Brightness Sun altitude
Rises 10:19:06 0° 257° (WSW) 2,679 7.7 -17.7°
Reaches altitude 10° 10:21:19 10° 255° (WSW) 1,788 6.7 -17.8°
Maximum altitude 10:25:22 73° 170° (S) 561 3.7 -18.0°
Enters shadow 10:28:16 19° 86° (E) 1,332 5.3 -18.2°
